This demonstration page uses our WeatherBlox Daily Observations layout. Learn more.

Left ArrowRight Arrow

Hourly Observations for April 14, 2021

Temp ( °F °C ) Dew Point ( °F °C ) Humidity (%) Winds ( mph kmh ) Pressure ( in mb ) Visibility ( mi km ) Precip ( " mm )
12:53 am 00:53 Clear 59 15 28 -2.2 31 31 N 14 22 29.87 1012 10 16 0.00 0.00
1:53 am 01:53 Clear 58 14.4 28 -2.2 32 32 N 13 20 29.88 1012 10 16 0.00 0.00
2:53 am 02:53 Clear 56 13.3 30 -1.1 37 37 N 9 15 29.88 1012 10 16 0.00 0.00
3:53 am 03:53 Clear 57 13.9 30 -1.1 36 36 N 18 30 29.88 1012 10 16 0.00 0.00
4:53 am 04:53 Clear 56 13.3 30 -1.1 37 37 N 14 22 29.88 1012 10 16 0.00 0.00
5:53 am 05:53 Clear 56 13.3 28 -2.2 34 34 N 17 28 29.89 1012 10 16 0.00 0.00
6:53 am 06:53 Sunny 52 11.1 29 -1.7 41 41 N 12 19 29.91 1013 10 16 0.00 0.00
7:53 am 07:53 Sunny 55 12.8 27 -2.8 34 34 NNW 6 9 29.93 1014 10 16 0.00 0.00
8:53 am 08:53 Sunny 60 15.6 23 -5 24 24 NNE 22 35 29.93 1014 10 16 0.00 0.00
9:53 am 09:53 Sunny 63 17.2 23 -5 22 22 NE 20 31 29.94 1014 10 16 0.00 0.00
10:53 am 10:53 Sunny 65 18.3 23 -5 20 20 NNE 17 28 29.93 1013 10 16 0.00 0.00
11:53 am 11:53 Sunny 67 19.4 24 -4.4 20 20 NNE 10 17 29.91 1013 10 16 0.00 0.00
12:53 pm 12:53 Sunny 69 20.6 23 -5 17 17 N 12 19 29.88 1012 10 16 0.00 0.00
1:53 pm 13:53 Sunny 71 21.7 25 -3.9 18 18 VRB 3 6 29.86 1011 10 16 0.00 0.00
2:53 pm 14:53 Sunny 72 22.2 21 -6.1 15 15 N 10 17 29.85 1011 10 16 0.00 0.00
3:53 pm 15:53 Sunny 74 23.3 23 -5 15 15 N 7 11 29.83 1010 10 16 0.00 0.00
4:53 pm 16:53 Sunny 74 23.3 22 -5.6 14 14 NNE 7 11 29.82 1010 10 16 0.00 0.00
5:53 pm 17:53 Sunny 75 23.9 23 -5 14 14 VRB 3 6 29.81 1010 10 16 0.00 0.00
6:53 pm 18:53 Sunny 74 23.3 22 -5.6 14 14 Calm 29.83 1010 10 16 0.00 0.00
7:53 pm 19:53 Clear 67 19.4 28 -2.2 23 23 SSW 6 9 29.84 1011 10 16 0.00 0.00
8:53 pm 20:53 Clear 65 18.3 31 -0.6 28 28 WSW 7 11 29.86 1011 10 16 0.00 0.00
9:53 pm 21:53 Clear 58 14.4 33 0.6 39 39 E 8 13 29.88 1012 10 16 0.00 0.00
10:53 pm 22:53 Clear 54 12.2 35 1.7 49 49 SE 5 7 29.90 1013 10 16 0.00 0.00
11:53 pm 23:53 Clear 54 12.2 35 1.7 49 49 WNW 5 7 29.92 1013 10 16 0.00 0.00

Powered by AerisWeather